Temperature
28 25 24 25 26 27 27 28 28 28 29 28 27 27 26 26 26 25 24 24 24 24 24 23 23 22 22 21 21 21 20 20 20 19 19 19 19 18 18 18 18 18 18 18
25 25 26 27 28 28 29 28 28 29 29 28 27 26 26 26 25 25 24 24 24 23 23 23 22 22 22 22 21 21 20 20 20 19 19 19 19 18 18 18 18 18 17 18
25 26 28 29 28 29 29 28 28 28 28 28 27 25 25 25 26 25 25 24 24 24 23 23 22 22 22 21 21 21 20 20 20 19 19 19 18 18 18 18 18 18 17 17
26 27 29 29 29 29 28 29 29 29 26 25 26 24 25 24 24 25 25 24 24 23 23 23 23 22 22 22 21 21 20 20 20 19 19 19 19 18 18 18 18 17 17 17
26 28 29 29 30 30 29 30 29 28 26 25 25 24 23 24 24 24 24 24 24 24 23 23 23 23 22 22 21 21 20 20 19 19 19 19 18 18 18 18 18 17 17 17
26 28 29 29 30 30 30 27 25 22 22 24 25 24 24 23 24 24 24 25 24 24 23 23 23 23 22 22 21 21 20 20 19 19 19 19 18 18 18 18 18 17 17 17
27 28 29 30 30 29 27 23 22 24 22 23 24 24 23 25 25 25 25 25 24 24 23 23 23 22 22 22 21 21 20 20 19 19 19 18 18 18 18 18 17 17 17 17
25 25 27 29 28 28 27 23 22 24 23 23 23 25 24 26 26 27 26 25 24 24 24 23 23 23 22 22 21 21 20 20 19 19 19 18 18 18 18 18 17 17 17 17
24 24 27 29 29 28 28 24 22 21 23 23 23 24 25 26 25 25 25 24 24 24 24 23 23 23 22 22 21 21 20 20 20 19 19 18 18 18 18 18 17 17 17 17
25 25 27 28 30 29 27 25 21 22 22 23 23 24 23 25 25 24 24 23 23 24 23 23 23 23 22 22 21 21 20 20 20 19 19 19 18 18 18 18 17 17 17 17
25 25 25 26 27 27 28 27 22 20 20 21 23 23 24 24 24 24 23 24 23 23 24 24 23 23 22 22 21 21 20 20 19 19 19 18 18 18 18 17 17 17 17 17
24 21 22 24 26 27 27 26 22 23 22 20 21 22 25 24 24 24 24 24 24 24 24 24 23 23 22 22 22 21 21 20 19 19 19 19 18 18 18 18 17 17 17 17
24 21 22 23 24 26 27 26 23 21 20 20 21 23 25 24 24 25 24 24 24 24 24 24 23 22 22 22 21 21 20 20 19 19 19 18 18 18 18 17 17 17 17 17
24 20 21 23 23 25 26 27 26 22 21 22 22 24 24 24 23 23 24 24 24 24 24 23 23 22 22 22 22 21 20 20 19 19 19 18 18 18 17 17 17 17 17 16
22 22 23 23 25 27 27 27 27 25 23 23 24 23 24 23 23 23 23 23 23 23 23 23 23 22 22 22 21 21 20 20 19 19 19 18 18 17 17 17 17 16 16 16
20 22 23 24 26 26 26 27 27 26 26 25 24 24 23 24 24 23 23 23 22 22 23 23 23 22 22 22 21 21 20 20 19 19 19 18 18 17 17 17 17 16 16 16
19 20 21 22 24 25 25 25 26 26 26 26 25 24 23 22 23 23 23 23 23 23 23 23 22 22 22 22 21 21 20 20 19 19 18 18 17 17 17 16 16 16 16 16
19 18 17 20 23 24 23 24 26 25 24 24 23 22 22 22 23 23 24 23 23 23 23 23 22 22 22 21 21 20 20 19 19 18 18 17 17 17 16 16 16 15 15 15
18 19 18 18 21 22 24 24 25 24 23 22 22 22 22 22 23 22 23 23 23 23 23 23 22 22 21 21 20 20 19 19 18 18 17 17 17 16 16 16 15 15 15 15
18 18 18 18 21 21 22 23 25 23 21 22 22 21 21 22 20 20 22 23 23 23 23 22 22 21 21 20 20 19 19 18 18 18 17 17 16 16 15 15 15 14 14 14
19 18 18 18 20 20 21 22 23 22 20 21 22 22 22 21 20 21 22 22 22 22 21 21 21 20 20 19 19 19 18 18 18 17 17 16 16 15 15 15 14 14 14 14
18 17 17 17 19 19 20 21 20 19 21 21 21 22 22 21 21 21 21 21 21 21 20 20 20 19 19 19 18 18 18 17 17 16 16 15 15 15 14 14 14 14 13 13
17 17 17 17 17 19 20 20 21 21 21 21 21 22 22 20 20 20 20 20 20 20 19 19 19 18 18 18 18 18 17 17 16 16 15 15 14 14 14 14 13 13 13 12
17 16 16 16 17 18 19 20 21 21 21 21 21 21 21 20 19 19 20 20 19 19 19 18 18 18 17 17 17 17 16 16 16 15 15 14 14 14 13 13 13 13 12 12
16 16 15 16 17 18 19 19 20 20 21 21 21 21 21 20 19 19 19 19 19 18 18 18 18 17 17 16 16 16 16 15 15 15 14 14 14 13 13 13 12 12 12 12
15 15 15 15 17 16 18 19 20 20 20 20 20 19 19 19 19 19 18 18 18 17 17 17 17 16 16 16 16 15 15 15 15 14 14 14 13 13 13 12 12 11 11 11
Wind_Speed
2 3 4 8 7 7 5 3 3 4 4 4 5 7 11 12 12 13 12 13 13 12 10 10 11 12 11 9 9 9 8 7 6 4 3 3 3 3 3 4 6 7 6 5
4 5 11 8 7 6 3 2 2 2 2 4 3 3 7 11 13 15 16 15 14 11 10 10 10 10 11 10 9 8 8 7 6 4 3 3 3 3 3 3 4 6 6 5
7 8 6 5 7 5 5 1 1 2 3 3 5 3 2 5 7 10 12 13 14 16 15 13 12 10 10 10 9 9 8 7 6 5 3 2 2 1 1 2 2 4 6 6
7 9 7 6 6 3 4 3 3 5 5 2 3 1 5 5 5 9 11 11 12 12 12 12 12 11 11 10 8 7 6 5 5 5 5 4 4 3 3 3 3 3 5 6
7 5 4 5 6 2 4 1 4 3 4 3 3 4 6 2 6 9 11 13 13 14 14 13 13 12 10 9 8 7 7 5 5 5 5 5 3 3 2 2 3 3 3 4
8 6 5 6 5 2 1 7 9 8 6 2 3 4 4 5 9 10 11 13 14 15 14 12 10 9 8 8 8 7 7 5 5 5 5 5 4 3 3 2 3 3 2 2
6 7 5 3 0 5 7 7 6 6 5 4 4 3 6 7 8 11 13 13 13 13 13 12 12 11 10 10 9 8 7 6 5 5 5 5 5 4 4 4 4 4 3 2
4 7 6 4 6 4 4 10 8 4 3 4 6 0 6 4 6 8 11 11 12 12 12 12 13 12 11 11 10 9 8 6 5 5 4 3 3 2 2 3 3 4 3 3
7 7 7 6 6 9 5 5 9 7 2 1 4 4 5 3 4 7 10 10 11 12 12 11 11 11 10 10 10 9 8 6 5 5 4 3 2 2 2 2 2 2 2 2
7 4 7 4 2 4 8 8 7 5 3 1 4 3 5 5 5 7 10 10 10 11 11 11 10 10 10 9 8 8 8 7 5 5 4 3 2 2 2 1 1 1 1 2
8 4 6 3 6 8 4 5 6 5 6 6 2 7 7 11 10 11 10 11 11 13 13 12 11 10 10 9 9 8 8 6 5 5 3 3 3 2 2 2 2 2 2 2
8 6 5 8 7 9 9 9 9 5 4 6 5 7 6 9 10 11 12 11 11 12 12 11 11 10 10 10 9 9 8 7 6 5 5 4 3 3 4 3 3 3 3 2
9 7 1 7 7 1 4 6 8 7 6 5 5 7 3 4 7 9 12 11 11 11 10 10 10 10 9 9 8 8 8 8 6 6 5 4 4 4 4 3 3 3 3 3
8 6 8 10 8 4 3 4 5 8 5 5 7 7 3 5 8 9 11 12 12 12 12 11 9 9 9 9 8 8 8 8 7 6 6 5 4 4 4 4 3 3 3 4
7 6 6 6 4 2 2 5 4 6 9 9 8 9 10 12 13 13 12 12 12 11 11 11 10 9 8 8 8 8 7 7 8 7 6 5 5 4 4 4 4 4 4 4
5 5 4 1 2 3 3 5 5 5 5 6 6 5 7 7 9 11 12 14 14 13 12 11 10 10 10 9 9 8 8 7 7 8 7 6 5 5 4 4 4 4 4 4
3 5 5 0 3 5 4 5 4 4 3 6 8 7 7 9 11 12 12 13 14 13 12 12 11 10 10 9 10 10 8 8 8 8 7 6 6 5 4 5 5 5 4 5
6 5 5 3 4 3 9 5 2 2 3 0 5 7 10 11 9 7 8 12 11 11 11 10 9 9 7 7 9 9 9 9 8 7 7 6 6 6 5 6 6 5 5 5
7 8 5 4 3 4 7 5 2 3 3 4 6 8 9 10 10 6 2 7 9 10 10 10 9 9 8 9 9 10 10 9 8 7 7 7 7 7 7 7 6 5 6 6
6 8 6 5 4 5 6 7 4 5 2 5 4 8 7 7 5 2 1 6 7 8 8 9 9 9 9 8 9 11 10 9 8 7 7 7 7 8 8 7 7 5 6 6
4 4 5 5 3 5 5 7 4 5 5 3 2 5 6 4 5 6 7 8 8 9 9 10 10 10 8 8 10 11 9 7 7 8 8 8 8 8 8 7 7 7 7 7
6 5 4 5 4 7 5 4 3 5 3 3 5 6 8 8 8 8 9 9 10 10 10 10 10 9 7 8 10 10 8 7 8 9 9 8 7 7 7 8 7 7 7 8
4 6 6 6 6 5 1 4 3 5 6 4 6 7 10 10 8 9 9 9 9 10 9 8 10 10 7 7 9 10 8 9 9 10 9 8 7 7 6 7 7 6 6 6
4 2 4 3 2 2 5 6 5 6 7 7 8 9 10 10 8 9 9 8 8 8 8 8 10 9 7 6 7 8 9 9 10 10 9 8 8 7 7 6 5 5 5 5
3 2 3 2 2 5 5 5 6 9 9 10 9 8 9 10 9 8 7 8 8 7 6 7 8 8 8 7 8 8 9 10 10 10 8 8 7 8 7 7 6 5 3 4
2 1 3 4 5 4 3 2 5 8 8 9 11 8 7 8 8 8 7 6 7 7 7 7 7 7 7 7 8 7 8 10 11 9 8 7 7 6 6 7 7 10 7 8
Wind_Direction
317 63 253 244 227 220 245 271 267 220 180 130 145 163 171 173 180 176 172 171 174 176 169 161 161 161 157 156 159 164 163 168 160 156 154 153 166 176 179 187 195 192 188 178
11 270 246 249 263 270 278 357 339 316 156 130 139 175 173 171 183 179 174 174 174 166 159 163 162 161 164 165 166 165 168 170 172 173 170 168 162 177 181 186 187 193 191 185
216 247 263 260 273 295 315 259 222 155 21 41 90 5 212 181 182 178 175 174 171 171 171 171 171 170 163 168 173 172 174 172 173 167 144 128 111 105 156 194 203 201 194 193
246 255 265 267 264 222 288 284 119 105 91 292 118 193 260 188 189 184 176 172 176 175 174 175 173 171 172 176 169 159 165 167 167 161 159 160 169 188 207 201 204 204 200 201
253 247 235 242 248 220 230 323 60 73 99 35 33 125 275 170 184 194 184 177 175 177 177 177 174 171 169 162 158 152 154 161 159 162 167 167 181 201 206 189 193 207 216 212
256 267 225 220 245 221 152 41 30 42 65 19 267 147 252 226 200 190 183 180 177 175 175 172 163 152 150 149 148 148 150 156 162 167 171 177 186 196 193 196 197 212 223 224
303 297 273 221 284 1 76 75 30 7 16 265 284 133 241 238 200 181 176 178 174 170 170 164 158 158 157 155 154 154 155 163 171 170 176 187 194 199 201 200 201 207 216 225
220 278 260 204 170 166 142 129 146 182 220 286 339 264 261 240 167 156 157 162 162 165 167 167 166 164 162 161 160 160 162 168 174 173 175 180 182 184 196 202 198 204 212 223
192 246 275 224 177 148 141 161 164 140 160 353 307 316 331 21 115 134 145 152 163 166 163 165 164 160 160 162 164 164 162 161 168 169 159 151 155 165 184 184 178 191 210 205
175 243 286 261 140 165 157 152 94 111 140 245 302 272 219 197 174 155 156 164 167 160 157 160 161 163 160 158 156 154 155 160 161 162 164 156 151 158 164 139 124 140 158 133
175 199 297 359 177 196 165 132 115 124 149 149 219 269 225 195 172 159 161 163 163 164 163 165 161 163 153 148 151 152 153 150 151 153 148 137 130 121 111 107 103 102 93 101
176 151 242 261 251 198 174 176 149 152 210 160 165 261 261 191 170 152 154 160 161 164 163 160 155 152 150 157 159 154 155 156 159 153 139 136 124 111 103 97 90 90 91 99
158 137 179 328 335 328 176 174 159 141 131 152 163 260 295 155 151 153 152 155 158 159 155 151 148 149 156 159 159 156 157 159 155 146 134 127 116 109 107 100 92 86 87 80
137 127 164 194 213 219 226 230 167 131 154 198 206 220 234 169 158 157 151 152 153 158 157 154 150 154 158 158 156 154 157 154 149 143 135 130 129 128 121 109 98 88 84 76
121 149 172 191 200 161 240 258 232 185 185 185 213 198 204 188 176 166 157 152 148 155 157 158 156 156 152 147 149 150 151 152 148 143 139 139 138 132 123 115 108 97 85 80
91 134 136 65 36 36 338 302 274 236 204 192 175 212 212 177 148 149 156 155 156 162 166 162 156 154 155 155 154 148 150 153 147 145 143 138 132 124 121 117 108 98 86 77
86 105 105 218 3 42 307 272 262 256 239 181 186 203 159 134 141 156 161 160 165 165 164 163 163 162 163 161 156 151 150 148 146 147 143 140 141 133 129 120 103 94 86 82
123 103 113 104 73 208 244 266 202 108 355 155 147 151 148 147 147 139 152 156 160 164 162 163 160 154 151 145 143 142 141 141 142 141 136 138 135 128 119 109 101 93 89 86
132 124 110 114 148 277 300 324 353 107 8 1 117 125 130 120 86 53 76 146 156 159 156 154 152 145 138 137 140 134 134 135 135 135 135 136 133 127 119 109 101 95 92 84
84 104 114 122 147 211 257 302 312 103 35 331 111 126 133 110 111 176 134 116 117 124 128 131 130 126 127 131 129 126 127 126 129 131 129 126 124 121 119 114 106 98 96 92
73 75 125 142 177 247 269 306 22 114 211 283 93 119 116 116 153 150 124 107 106 112 117 120 121 126 131 128 124 124 124 127 125 117 111 109 113 118 119 116 113 110 105 96
157 146 167 146 170 244 298 20 111 186 188 104 86 91 94 97 102 105 106 106 108 108 111 115 117 115 119 125 128 127 128 127 117 111 107 108 110 113 115 115 111 108 108 102
172 180 176 173 197 233 325 125 147 138 113 97 98 103 106 105 108 108 106 108 107 107 111 114 117 115 112 116 126 130 132 126 120 113 110 106 98 91 98 109 112 111 108 107
330 46 97 98 130 98 77 77 75 86 98 101 108 110 109 112 114 112 111 110 107 104 113 116 119 121 119 117 120 128 130 128 124 121 117 111 104 95 84 86 96 108 110 111
303 30 76 109 141 78 56 72 90 85 86 90 91 97 108 116 118 120 119 117 116 113 108 114 121 125 127 125 124 129 131 129 125 123 119 113 109 108 94 80 70 89 92 133
325 124 146 193 207 150 170 154 109 98 100 112 109 98 96 112 119 118 122 123 120 120 116 115 116 122 129 131 131 136 139 137 134 130 129 125 121 115 113 108 86 60 75 89
Height
1516 1522 1528 1523 1521 1523 1523 1525 1525 1518 1510 1514 1521 1524 1524 1526 1530 1532 1534 1536 1538 1540 1543 1545 1547 1549 1551 1553 1554 1555 1556 1558 1559 1560 1562 1563 1564 1565 1566 1566 1567 1568 1569 1570
1523 1526 1516 1514 1514 1516 1519 1524 1524 1517 1511 1516 1523 1525 1524 1525 1527 1528 1530 1533 1535 1539 1542 1544 1546 1548 1549 1551 1552 1553 1555 1556 1558 1559 1561 1562 1563 1563 1564 1564 1565 1566 1567 1568
1525 1518 1510 1513 1515 1518 1519 1522 1522 1522 1517 1518 1525 1535 1530 1526 1526 1528 1530 1531 1534 1536 1539 1542 1545 1547 1548 1550 1551 1553 1554 1556 1557 1558 1559 1560 1561 1561 1562 1562 1563 1564 1564 1565
1519 1511 1510 1513 1514 1515 1524 1512 1512 1517 1530 1539 1533 1554 1536 1528 1528 1528 1529 1531 1534 1536 1539 1541 1543 1545 1547 1549 1551 1552 1554 1555 1556 1557 1558 1558 1558 1559 1559 1560 1561 1561 1562 1563
1517 1508 1510 1513 1509 1508 1513 1506 1510 1516 1528 1539 1537 1549 1543 1530 1532 1528 1527 1529 1532 1535 1537 1540 1542 1544 1546 1549 1550 1551 1553 1554 1555 1556 1556 1556 1557 1557 1558 1558 1558 1559 1560 1560
1510 1505 1505 1505 1502 1503 1505 1512 1519 1529 1539 1555 1542 1547 1548 1534 1527 1525 1525 1528 1530 1532 1536 1539 1541 1544 1546 1548 1550 1551 1552 1553 1554 1554 1555 1555 1555 1555 1556 1556 1556 1556 1557 1558
1514 1506 1501 1501 1505 1505 1511 1534 1557 1558 1568 1561 1540 1542 1542 1521 1516 1517 1521 1525 1528 1531 1534 1537 1540 1542 1545 1547 1549 1550 1551 1552 1552 1553 1553 1553 1554 1554 1554 1554 1554 1555 1555 1556
1526 1526 1504 1499 1505 1512 1515 1531 1560 1569 1571 1562 1544 1543 1531 1512 1512 1514 1518 1522 1526 1530 1533 1535 1538 1540 1543 1546 1548 1549 1550 1551 1551 1552 1552 1552 1553 1553 1553 1553 1553 1553 1553 1554
1525 1524 1500 1496 1496 1503 1515 1526 1531 1551 1555 1563 1555 1539 1525 1514 1514 1516 1520 1523 1526 1528 1532 1535 1538 1540 1542 1544 1546 1548 1549 1550 1551 1551 1552 1552 1552 1552 1552 1552 1552 1552 1552 1552
1510 1518 1505 1497 1496 1500 1506 1515 1537 1551 1566 1571 1559 1548 1541 1524 1519 1518 1521 1523 1525 1528 1531 1534 1538 1540 1542 1544 1546 1548 1549 1550 1550 1551 1551 1551 1551 1552 1552 1551 1551 1551 1551 1551
1504 1517 1514 1505 1507 1510 1509 1516 1531 1548 1554 1567 1569 1554 1519 1517 1514 1516 1519 1522 1526 1527 1529 1532 1536 1540 1542 1544 1546 1547 1548 1549 1550 1551 1551 1551 1551 1551 1551 1551 1550 1550 1550 1551
1500 1516 1524 1513 1499 1495 1502 1510 1526 1544 1549 1555 1560 1549 1508 1509 1510 1513 1518 1521 1524 1527 1529 1532 1535 1537 1540 1543 1545 1546 1547 1549 1550 1551 1551 1551 1551 1551 1551 1551 1550 1550 1550 1550
1497 1515 1530 1528 1518 1504 1503 1505 1514 1527 1541 1552 1557 1542 1508 1509 1511 1513 1516 1519 1522 1526 1529 1532 1534 1537 1540 1542 1544 1546 1547 1548 1550 1550 1551 1551 1551 1551 1551 1551 1550 1550 1550 1550
1488 1509 1523 1531 1525 1511 1508 1504 1506 1523 1539 1543 1539 1530 1515 1512 1512 1515 1516 1518 1521 1524 1527 1530 1533 1536 1539 1541 1543 1545 1546 1548 1549 1550 1550 1550 1551 1550 1550 1550 1550 1550 1550 1550
1487 1505 1506 1506 1502 1500 1503 1503 1503 1511 1520 1528 1523 1520 1513 1508 1508 1511 1515 1518 1521 1524 1527 1529 1532 1535 1538 1540 1542 1544 1546 1547 1548 1549 1550 1550 1550 1550 1550 1550 1550 1550 1550 1550
1489 1500 1502 1505 1499 1499 1502 1500 1500 1502 1504 1510 1511 1512 1503 1504 1508 1511 1514 1516 1519 1522 1525 1528 1531 1534 1536 1539 1541 1543 1545 1546 1548 1549 1549 1549 1550 1550 1550 1550 1550 1550 1550 1550
1494 1501 1512 1517 1506 1504 1514 1503 1500 1500 1497 1501 1508 1506 1502 1505 1507 1509 1511 1513 1516 1519 1522 1526 1529 1532 1534 1537 1539 1541 1543 1546 1547 1547 1548 1549 1550 1550 1550 1550 1550 1550 1550 1550
1494 1504 1516 1519 1515 1526 1513 1494 1493 1497 1497 1494 1495 1497 1499 1502 1505 1508 1510 1512 1515 1518 1522 1525 1528 1530 1533 1536 1538 1541 1542 1544 1545 1546 1547 1548 1549 1549 1550 1550 1550 1550 1550 1549
1486 1500 1515 1525 1526 1520 1504 1494 1494 1498 1503 1497 1496 1498 1500 1502 1505 1510 1512 1513 1515 1518 1520 1523 1526 1528 1531 1534 1537 1539 1541 1542 1544 1545 1546 1547 1548 1548 1549 1549 1550 1550 1550 1549
1488 1494 1511 1522 1525 1527 1510 1495 1491 1495 1510 1500 1497 1498 1500 1501 1511 1514 1513 1514 1517 1519 1521 1523 1526 1528 1531 1533 1536 1538 1540 1541 1543 1544 1545 1546 1547 1548 1548 1549 1549 1549 1549 1549
1502 1506 1513 1519 1521 1516 1500 1494 1492 1511 1513 1501 1499 1499 1500 1503 1507 1510 1512 1514 1517 1519 1521 1523 1526 1528 1530 1532 1535 1537 1538 1540 1542 1544 1544 1545 1546 1547 1547 1548 1548 1549 1549 1549
1505 1511 1515 1519 1523 1520 1497 1495 1501 1504 1500 1500 1500 1501 1502 1504 1507 1510 1512 1514 1517 1519 1521 1524 1526 1528 1531 1533 1535 1536 1538 1540 1542 1543 1544 1545 1546 1547 1547 1547 1548 1548 1549 1549
1500 1501 1504 1508 1511 1501 1496 1496 1498 1498 1499 1500 1501 1503 1504 1507 1510 1512 1513 1515 1518 1519 1522 1524 1527 1528 1531 1532 1534 1535 1537 1539 1540 1542 1543 1544 1546 1546 1547 1547 1547 1548 1548 1549
1496 1494 1498 1503 1502 1499 1498 1498 1498 1499 1499 1501 1502 1504 1505 1508 1511 1513 1514 1516 1518 1520 1522 1524 1526 1528 1530 1532 1533 1534 1535 1538 1539 1540 1542 1543 1544 1545 1546 1547 1547 1548 1548 1548
1499 1496 1500 1503 1502 1501 1501 1501 1501 1501 1502 1502 1504 1506 1508 1510 1512 1514 1516 1517 1519 1521 1523 1525 1526 1527 1529 1531 1533 1534 1536 1537 1538 1540 1541 1542 1544 1545 1546 1546 1547 1548 1548 1549
1499 1500 1502 1504 1500 1500 1503 1503 1502 1502 1503 1504 1505 1507 1510 1511 1513 1515 1516 1518 1519 1521 1523 1524 1526 1527 1529 1531 1532 1534 1535 1536 1537 1539 1540 1541 1543 1544 1545 1545 1547 1548 1549 1549